Location: Buckeye Ditch
(40.9104°N, 122.9517°W)
Time: 15:00:34
(UTC+00:00)

Cosmos 1515 Rocket - Visible Passes

Search period start: 24 July 2024 00:00
Search period end: 03 August 2024 00:00
Orbit: 603 x 625 km, 82.5° (Epoch: 24 July)

Date Brightness Start Highest point End Pass type
(mag) Time Alt. Az. Time Alt. Az. Time Alt. Az.
24 Jul 3.7 10:27:51 10° N 10:32:15 69° E 10:33:38 42° SSE visible
25 Jul 6.3 09:08:29 10° NE 09:09:52 11° ENE 09:11:14 10° E visible
25 Jul 3.5 10:43:44 10° NNW 10:48:06 64° W 10:48:53 53° SW visible
26 Jul 5.7 09:22:46 10° NNE 09:26:00 20° ENE 09:27:09 18° E visible
26 Jul 4.3 10:59:52 10° NNW 11:03:51 34° W 11:04:11 34° W visible
27 Jul 4.8 09:38:01 10° N 09:42:02 34° ENE 09:42:29 33° E visible
27 Jul 5.1 11:16:23 10° NW 11:19:30 19° W 11:19:30 19° W visible
28 Jul 3.9 09:53:36 10° N 09:57:50 62° ENE 09:57:50 62° ENE visible
28 Jul 5.8 11:34:08 10° WNW 11:34:51 11° W 11:34:51 11° W visible
29 Jul 6.3 08:35:02 10° ENE 08:35:31 10° ENE 08:36:00 10° ENE visible
29 Jul 3.8 10:09:27 10° NNW 10:13:12 60° NW 10:13:12 60° NW visible
30 Jul 5.8 08:48:38 10° NNE 08:51:35 18° ENE 08:51:35 18° ENE visible
30 Jul 4.6 10:25:31 10° NNW 10:28:37 33° WNW 10:28:37 33° WNW visible
31 Jul 5.2 09:03:47 10° NNE 09:07:00 29° ENE 09:07:00 29° ENE visible
31 Jul 5.4 10:41:57 10° NW 10:44:02 19° WNW 10:44:02 19° WNW visible
01 Aug 4.7 09:19:19 10° N 09:22:27 41° NNE 09:22:27 41° NNE visible
01 Aug 5.9 10:59:17 10° WNW 10:59:29 10° WNW 10:59:29 10° WNW visible
02 Aug 4.7 09:35:07 10° N 09:37:55 39° NNW 09:37:55 39° NNW visible
